Time,TemperatureF,DewpointF,PressureIn,WindDirection,WindDirectionDegrees,WindSpeedMPH,WindSpeedGustMPH,Humidity,HourlyPrecipIn,Conditions,Clouds,dailyrainin,SoftwareType,DateUTC
2013-06-04 00:01:00,56.3,48.6,30.12,NNE,18,0.0,3.0,75,0.00,,,0.00,WUHU216DAVISVP2,2013-06-04 04:01:00,
2013-06-04 00:02:00,56.3,48.6,30.12,NNE,16,1.0,3.0,75,0.00,,,0.00,WUHU216DAVISVP2,2013-06-04 04:02:00,
2013-06-04 00:07:00,56.1,49.1,30.12,North,359,0.0,3.0,77,0.00,,,0.00,WUHU216DAVISVP2,2013-06-04 04:07:00,
2013-06-04 00:23:00,55.4,48.7,30.12,NNE,18,0.0,1.0,78,0.00,,,0.00,WUHU216DAVISVP2,2013-06-04 04:23:00,
2013-06-04 00:28:00,55.1,48.4,30.13,NNE,18,0.0,0.0,78,0.00,,,0.00,WUHU216DAVISVP2,2013-06-04 04:28:00,
2013-06-04 00:45:00,54.6,48.6,30.12,East,84,0.0,0.0,80,0.00,,,0.00,WUHU216DAVISVP2,2013-06-04 04:45:00,
2013-06-04 00:50:00,54.5,48.8,30.12,East,83,0.0,0.0,81,0.00,,,0.00,WUHU216DAVISVP2,2013-06-04 04:50:00,
2013-06-04 01:07:00,53.5,48.5,30.12,NE,37,0.0,0.0,83,0.00,,,0.00,WUHU216DAVISVP2,2013-06-04 05:07:00,
2013-06-04 01:12:00,53.5,49.1,30.11,NE,37,0.0,0.0,85,0.00,,,0.00,WUHU216DAVISVP2,2013-06-04 05:12:00,
2013-06-04 01:17:00,53.2,48.5,30.11,NE,37,0.0,0.0,84,0.00,,,0.00,WUHU216DAVISVP2,2013-06-04 05:17:00,
2013-06-04 01:29:00,52.6,47.6,30.11,NE,37,0.0,0.0,83,0.00,,,0.00,WUHU216DAVISVP2,2013-06-04 05:29:00,
2013-06-04 01:34:00,52.6,47.9,30.11,NE,37,0.0,0.0,84,0.00,,,0.00,WUHU216DAVISVP2,2013-06-04 05:34:00,
2013-06-04 01:39:00,52.7,48.0,30.11,NE,37,0.0,0.0,84,0.00,,,0.00,WUHU216DAVISVP2,2013-06-04 05:39:00,
2013-06-04 01:50:00,52.5,47.5,30.12,NE,37,0.0,0.0,83,0.00,,,0.00,WUHU216DAVISVP2,2013-06-04 05:50:00,
2013-06-04 01:55:00,52.6,47.3,30.12,NE,37,0.0,0.0,82,0.00,,,0.00,WUHU216DAVISVP2,2013-06-04 05:55:00,
2013-06-04 02:00:00,52.7,47.4,30.12,North,8,0.0,0.0,82,0.00,,,0.00,WUHU216DAVISVP2,2013-06-04 06:00:00,
2013-06-04 02:12:00,52.1,47.4,30.12,North,4,0.0,0.0,84,0.00,,,0.00,WUHU216DAVISVP2,2013-06-04 06:12:00,
2013-06-04 02:17:00,51.9,47.5,30.13,North,4,0.0,0.0,85,0.00,,,0.00,WUHU216DAVISVP2,2013-06-04 06:17:00,
2013-06-04 02:34:00,51.6,46.9,30.13,North,9,0.0,0.0,84,0.00,,,0.00,WUHU216DAVISVP2,2013-06-04 06:34:00,
2013-06-04 02:39:00,51.5,47.1,30.13,North,9,0.0,0.0,85,0.00,,,0.00,WUHU216DAVISVP2,2013-06-04 06:39:00,
2013-06-04 02:44:00,51.5,47.4,30.13,North,9,0.0,0.0,86,0.00,,,0.00,WUHU216DAVISVP2,2013-06-04 06:44:00,
2013-06-04 02:56:00,51.8,47.4,30.13,North,9,0.0,0.0,85,0.00,,,0.00,WUHU216DAVISVP2,2013-06-04 06:56:00,
2013-06-04 03:01:00,51.8,47.4,30.13,North,8,0.0,0.0,85,0.00,,,0.00,WUHU216DAVISVP2,2013-06-04 07:01:00,
2013-06-04 03:18:00,51.8,47.7,30.13,North,11,0.0,0.0,86,0.00,,,0.00,WUHU216DAVISVP2,2013-06-04 07:18:00,
2013-06-04 03:23:00,51.6,46.9,30.13,NNE,27,0.0,0.0,84,0.00,,,0.00,WUHU216DAVISVP2,2013-06-04 07:23:00,
2013-06-04 03:28:00,51.7,47.3,30.13,NNE,27,0.0,0.0,85,0.00,,,0.00,WUHU216DAVISVP2,2013-06-04 07:28:00,
2013-06-04 03:40:00,51.6,47.5,30.13,NNE,31,0.0,1.0,86,0.00,,,0.00,WUHU216DAVISVP2,2013-06-04 07:40:00,
2013-06-04 03:45:00,51.4,47.6,30.13,NNE,30,0.0,1.0,87,0.00,,,0.00,WUHU216DAVISVP2,2013-06-04 07:45:00,
2013-06-04 04:02:00,51.3,47.2,30.13,NNE,30,0.0,0.0,86,0.00,,,0.00,WUHU216DAVISVP2,2013-06-04 08:02:00,
2013-06-04 04:07:00,51.2,47.1,30.13,NE,44,0.0,0.0,86,0.00,,,0.00,WUHU216DAVISVP2,2013-06-04 08:07:00,
2013-06-04 04:24:00,50.6,47.1,30.13,ENE,72,0.0,0.0,88,0.00,,,0.00,WUHU216DAVISVP2,2013-06-04 08:24:00,
2013-06-04 04:29:00,50.2,47.1,30.13,ENE,72,0.0,0.0,89,0.00,,,0.00,WUHU216DAVISVP2,2013-06-04 08:29:00,
2013-06-04 04:46:00,50.1,47.2,30.13,ENE,75,0.0,0.0,90,0.00,,,0.00,WUHU216DAVISVP2,2013-06-04 08:46:00,
2013-06-04 04:51:00,49.9,47.0,30.14,ENE,75,0.0,0.0,90,0.00,,,0.00,WUHU216DAVISVP2,2013-06-04 08:51:00,
2013-06-04 04:56:00,50.0,47.1,30.14,ENE,75,0.0,0.0,90,0.00,,,0.00,WUHU216DAVISVP2,2013-06-04 08:56:00,
2013-06-04 05:08:00,49.9,46.5,30.14,ENE,68,0.0,0.0,88,0.00,,,0.00,WUHU216DAVISVP2,2013-06-04 09:08:00,
2013-06-04 05:13:00,49.6,46.5,30.14,ENE,68,0.0,0.0,89,0.00,,,0.00,WUHU216DAVISVP2,2013-06-04 09:13:00,
2013-06-04 05:30:00,48.8,46.0,30.14,ENE,68,0.0,0.0,90,0.00,,,0.00,WUHU216DAVISVP2,2013-06-04 09:30:00,
2013-06-04 05:35:00,48.7,46.1,30.14,ENE,68,0.0,0.0,91,0.00,,,0.00,WUHU216DAVISVP2,2013-06-04 09:35:00,
2013-06-04 05:40:00,48.5,46.0,30.14,ENE,68,0.0,0.0,91,0.00,,,0.00,WUHU216DAVISVP2,2013-06-04 09:40:00,
2013-06-04 05:52:00,48.5,46.2,30.14,ENE,68,0.0,0.0,92,0.00,,,0.00,WUHU216DAVISVP2,2013-06-04 09:52:00,
2013-06-04 05:57:00,48.7,46.4,30.14,ENE,68,0.0,0.0,92,0.00,,,0.00,WUHU216DAVISVP2,2013-06-04 09:57:00,
2013-06-04 06:13:00,49.3,46.7,30.15,ENE,58,0.0,0.0,91,0.00,,,0.00,WUHU216DAVISVP2,2013-06-04 10:13:00,
2013-06-04 06:18:00,49.3,47.0,30.15,NE,56,0.0,0.0,92,0.00,,,0.00,WUHU216DAVISVP2,2013-06-04 10:18:00,
2013-06-04 06:35:00,50.3,46.9,30.16,NE,38,0.0,0.0,88,0.00,,,0.00,WUHU216DAVISVP2,2013-06-04 10:35:00,
2013-06-04 06:40:00,50.6,47.1,30.17,NE,39,0.0,0.0,88,0.00,,,0.00,WUHU216DAVISVP2,2013-06-04 10:40:00,
2013-06-04 06:57:00,52.3,48.5,30.18,NE,38,0.0,0.0,87,0.00,,,0.00,WUHU216DAVISVP2,2013-06-04 10:57:00,
2013-06-04 07:02:00,53.4,49.3,30.18,NE,39,0.0,0.0,86,0.00,,,0.00,WUHU216DAVISVP2,2013-06-04 11:02:00,
2013-06-04 07:07:00,53.9,48.9,30.19,NE,39,0.0,0.0,83,0.00,,,0.00,WUHU216DAVISVP2,2013-06-04 11:07:00,
2013-06-04 07:19:00,54.1,49.1,30.18,NE,39,0.0,0.0,83,0.00,,,0.00,WUHU216DAVISVP2,2013-06-04 11:19:00,
2013-06-04 07:24:00,54.4,49.0,30.18,NE,49,0.0,0.0,82,0.00,,,0.00,WUHU216DAVISVP2,2013-06-04 11:24:00,
2013-06-04 07:41:00,54.8,48.7,30.18,ENE,75,0.0,1.0,80,0.00,,,0.00,WUHU216DAVISVP2,2013-06-04 11:41:00,
2013-06-04 07:46:00,54.7,48.7,30.18,ENE,64,0.0,1.0,80,0.00,,,0.00,WUHU216DAVISVP2,2013-06-04 11:46:00,
2013-06-04 08:03:00,54.9,49.2,30.18,East,82,2.0,4.0,81,0.00,,,0.00,WUHU216DAVISVP2,2013-06-04 12:03:00,
2013-06-04 08:08:00,55.1,49.4,30.17,East,82,4.0,5.0,81,0.00,,,0.00,WUHU216DAVISVP2,2013-06-04 12:08:00,
2013-06-04 08:25:00,55.8,49.7,30.17,ENE,58,4.0,7.0,80,0.00,,,0.00,WUHU216DAVISVP2,2013-06-04 12:25:00,
2013-06-04 08:30:00,56.1,50.0,30.17,ENE,64,3.0,7.0,80,0.00,,,0.00,WUHU216DAVISVP2,2013-06-04 12:30:00,
2013-06-04 08:35:00,56.4,50.4,30.17,ENE,70,5.0,8.0,80,0.00,,,0.00,WUHU216DAVISVP2,2013-06-04 12:35:00,
2013-06-04 08:47:00,57.1,50.7,30.17,ENE,71,4.0,7.0,79,0.00,,,0.00,WUHU216DAVISVP2,2013-06-04 12:47:00,
2013-06-04 08:52:00,57.5,50.3,30.17,NE,56,6.0,7.0,77,0.00,,,0.00,WUHU216DAVISVP2,2013-06-04 12:52:00,
2013-06-04 09:09:00,58.8,51.0,30.18,ENE,78,3.0,8.0,75,0.00,,,0.00,WUHU216DAVISVP2,2013-06-04 13:09:00,
2013-06-04 09:14:00,59.1,51.3,30.18,ENE,61,5.0,7.0,75,0.00,,,0.00,WUHU216DAVISVP2,2013-06-04 13:14:00,
2013-06-04 09:31:00,60.1,50.8,30.18,ENE,64,4.0,7.0,71,0.00,,,0.00,WUHU216DAVISVP2,2013-06-04 13:31:00,
2013-06-04 09:36:00,60.5,50.4,30.17,ENE,72,7.0,9.0,69,0.00,,,0.00,WUHU216DAVISVP2,2013-06-04 13:36:00,
2013-06-04 09:41:00,60.9,50.4,30.17,ENE,74,5.0,10.0,68,0.00,,,0.00,WUHU216DAVISVP2,2013-06-04 13:41:00,
2013-06-04 09:52:00,61.7,51.6,30.17,ENE,61,6.0,9.0,69,0.00,,,0.00,WUHU216DAVISVP2,2013-06-04 13:52:00,
2013-06-04 09:58:00,62.0,50.3,30.18,East,84,4.0,8.0,65,0.00,,,0.00,WUHU216DAVISVP2,2013-06-04 13:58:00,
2013-06-04 10:14:00,63.0,52.0,30.19,NE,43,4.0,7.0,67,0.00,,,0.00,WUHU216DAVISVP2,2013-06-04 14:14:00,
2013-06-04 10:19:00,63.1,51.3,30.19,NE,44,3.0,7.0,65,0.00,,,0.00,WUHU216DAVISVP2,2013-06-04 14:19:00,
2013-06-04 10:24:00,63.3,51.1,30.18,NE,56,4.0,7.0,64,0.00,,,0.00,WUHU216DAVISVP2,2013-06-04 14:24:00,
2013-06-04 10:36:00,64.0,50.0,30.18,ESE,106,4.0,8.0,60,0.00,,,0.00,WUHU216DAVISVP2,2013-06-04 14:36:00,
2013-06-04 10:41:00,64.5,51.4,30.18,SE,127,6.0,8.0,62,0.00,,,0.00,WUHU216DAVISVP2,2013-06-04 14:41:00,
2013-06-04 10:58:00,64.9,51.3,30.18,East,100,5.0,10.0,61,0.00,,,0.00,WUHU216DAVISVP2,2013-06-04 14:58:00,
2013-06-04 11:03:00,65.2,50.2,30.18,ESE,104,8.0,10.0,58,0.00,,,0.00,WUHU216DAVISVP2,2013-06-04 15:03:00,
2013-06-04 11:20:00,65.4,48.4,30.18,East,96,7.0,11.0,54,0.00,,,0.00,WUHU216DAVISVP2,2013-06-04 15:20:00,
2013-06-04 11:25:00,65.6,49.1,30.18,SE,132,2.0,11.0,55,0.00,,,0.00,WUHU216DAVISVP2,2013-06-04 15:25:00,
2013-06-04 11:30:00,65.9,48.4,30.18,ENE,74,5.0,10.0,53,0.00,,,0.00,WUHU216DAVISVP2,2013-06-04 15:30:00,
2013-06-04 11:42:00,66.3,48.2,30.18,East,89,3.0,11.0,52,0.00,,,0.00,WUHU216DAVISVP2,2013-06-04 15:42:00,
2013-06-04 11:47:00,66.6,49.5,30.18,East,95,7.0,11.0,54,0.00,,,0.00,WUHU216DAVISVP2,2013-06-04 15:47:00,
2013-06-04 12:04:00,66.9,49.8,30.17,ESE,117,8.0,12.0,54,0.00,,,0.00,WUHU216DAVISVP2,2013-06-04 16:04:00,
2013-06-04 12:09:00,66.9,49.8,30.18,ESE,122,5.0,12.0,54,0.00,,,0.00,WUHU216DAVISVP2,2013-06-04 16:09:00,
2013-06-04 12:14:00,67.2,49.1,30.18,ESE,108,6.0,12.0,52,0.00,,,0.00,WUHU216DAVISVP2,2013-06-04 16:14:00,
2013-06-04 12:26:00,67.4,48.2,30.18,East,94,11.0,14.0,50,0.00,,,0.00,WUHU216DAVISVP2,2013-06-04 16:26:00,
2013-06-04 12:31:00,67.4,48.2,30.18,East,80,9.0,14.0,50,0.00,,,0.00,WUHU216DAVISVP2,2013-06-04 16:31:00,
2013-06-04 12:36:00,67.5,46.6,30.17,East,89,14.0,18.0,47,0.00,,,0.00,WUHU216DAVISVP2,2013-06-04 16:36:00,
2013-06-04 12:48:00,68.0,48.2,30.17,East,81,4.0,17.0,49,0.00,,,0.00,WUHU216DAVISVP2,2013-06-04 16:48:00,
2013-06-04 12:53:00,68.1,49.4,30.17,ESE,110,6.0,17.0,51,0.00,,,0.00,WUHU216DAVISVP2,2013-06-04 16:53:00,
2013-06-04 13:10:00,68.0,48.7,30.17,East,89,11.0,12.0,50,0.00,,,0.00,WUHU216DAVISVP2,2013-06-04 17:10:00,
2013-06-04 13:15:00,68.2,48.9,30.17,East,82,11.0,14.0,50,0.00,,,0.00,WUHU216DAVISVP2,2013-06-04 17:15:00,
2013-06-04 13:20:00,68.1,49.4,30.17,NE,56,3.0,15.0,51,0.00,,,0.00,WUHU216DAVISVP2,2013-06-04 17:20:00,
2013-06-04 13:32:00,68.4,48.5,30.16,ENE,75,8.0,14.0,49,0.00,,,0.00,WUHU216DAVISVP2,2013-06-04 17:32:00,
2013-06-04 13:39:00,68.7,49.9,30.16,East,79,8.0,14.0,51,0.00,,,0.00,WUHU216DAVISVP2,2013-06-04 17:39:00,
2013-06-04 13:53:00,69.0,50.2,30.16,ESE,112,12.0,16.0,51,0.00,,,0.00,WUHU216DAVISVP2,2013-06-04 17:53:00,
2013-06-04 13:58:00,69.2,51.4,30.16,East,101,7.0,16.0,53,0.00,,,0.00,WUHU216DAVISVP2,2013-06-04 17:58:00,
2013-06-04 14:03:00,69.3,49.4,30.16,ESE,108,6.0,14.0,49,0.00,,,0.00,WUHU216DAVISVP2,2013-06-04 18:03:00,
2013-06-04 14:15:00,69.6,49.1,30.15,East,82,6.0,15.0,48,0.00,,,0.00,WUHU216DAVISVP2,2013-06-04 18:15:00,
2013-06-04 14:20:00,69.4,47.7,30.15,ESE,102,3.0,15.0,46,0.00,,,0.00,WUHU216DAVISVP2,2013-06-04 18:20:00,
2013-06-04 14:25:00,69.6,49.6,30.15,ESE,110,11.0,14.0,49,0.00,,,0.00,WUHU216DAVISVP2,2013-06-04 18:25:00,
2013-06-04 14:37:00,70.1,48.9,30.16,ENE,70,6.0,14.0,47,0.00,,,0.00,WUHU216DAVISVP2,2013-06-04 18:37:00,
2013-06-04 14:42:00,69.8,49.2,30.15,NE,46,5.0,13.0,48,0.00,,,0.00,WUHU216DAVISVP2,2013-06-04 18:42:00,
2013-06-04 14:47:00,69.7,49.7,30.15,East,88,4.0,11.0,49,0.00,,,0.00,WUHU216DAVISVP2,2013-06-04 18:47:00,
2013-06-04 14:59:00,70.2,49.0,30.15,ENE,71,8.0,14.0,47,0.00,,,0.00,WUHU216DAVISVP2,2013-06-04 18:59:00,
2013-06-04 15:04:00,70.2,48.4,30.15,East,81,5.0,14.0,46,0.00,,,0.00,WUHU216DAVISVP2,2013-06-04 19:04:00,
2013-06-04 15:21:00,71.0,51.5,30.15,ENE,75,9.0,12.0,50,0.00,,,0.00,WUHU216DAVISVP2,2013-06-04 19:21:00,
2013-06-04 15:26:00,70.9,49.7,30.15,ENE,67,4.0,13.0,47,0.00,,,0.00,WUHU216DAVISVP2,2013-06-04 19:26:00,
2013-06-04 15:31:00,70.8,49.0,30.14,East,95,6.0,13.0,46,0.00,,,0.00,WUHU216DAVISVP2,2013-06-04 19:31:00,
2013-06-04 15:43:00,71.2,49.3,30.14,ESE,104,7.0,11.0,46,0.00,,,0.00,WUHU216DAVISVP2,2013-06-04 19:43:00,
2013-06-04 15:48:00,71.3,49.4,30.14,ESE,104,6.0,12.0,46,0.00,,,0.00,WUHU216DAVISVP2,2013-06-04 19:48:00,
2013-06-04 16:05:00,72.0,51.3,30.14,East,82,7.0,15.0,48,0.00,,,0.00,WUHU216DAVISVP2,2013-06-04 20:05:00,
2013-06-04 16:10:00,72.0,50.7,30.14,ESE,104,3.0,15.0,47,0.00,,,0.00,WUHU216DAVISVP2,2013-06-04 20:10:00,
2013-06-04 16:15:00,72.5,50.5,30.14,ENE,71,2.0,15.0,46,0.00,,,0.00,WUHU216DAVISVP2,2013-06-04 20:15:00,
2013-06-04 16:27:00,72.5,49.3,30.14,East,86,6.0,11.0,44,0.00,,,0.00,WUHU216DAVISVP2,2013-06-04 20:27:00,
2013-06-04 16:32:00,72.8,50.8,30.14,ESE,117,6.0,10.0,46,0.00,,,0.00,WUHU216DAVISVP2,2013-06-04 20:32:00,
2013-06-04 16:37:00,72.7,48.9,30.14,East,88,2.0,11.0,43,0.00,,,0.00,WUHU216DAVISVP2,2013-06-04 20:37:00,
2013-06-04 16:49:00,72.2,50.3,30.13,ENE,71,4.0,10.0,46,0.00,,,0.00,WUHU216DAVISVP2,2013-06-04 20:49:00,
2013-06-04 16:54:00,72.4,50.4,30.13,East,96,5.0,9.0,46,0.00,,,0.00,WUHU216DAVISVP2,2013-06-04 20:54:00,
2013-06-04 17:11:00,72.0,48.9,30.12,ENE,58,3.0,19.0,44,0.00,,,0.00,WUHU216DAVISVP2,2013-06-04 21:11:00,
2013-06-04 17:16:00,72.2,50.3,30.12,ENE,58,4.0,11.0,46,0.00,,,0.00,WUHU216DAVISVP2,2013-06-04 21:16:00,
2013-06-04 17:21:00,72.1,50.2,30.12,East,79,5.0,10.0,46,0.00,,,0.00,WUHU216DAVISVP2,2013-06-04 21:21:00,
2013-06-04 17:33:00,72.1,50.2,30.12,East,79,5.0,8.0,46,0.00,,,0.00,WUHU216DAVISVP2,2013-06-04 21:33:00,
2013-06-04 17:38:00,72.0,50.1,30.11,ESE,102,8.0,11.0,46,0.00,,,0.00,WUHU216DAVISVP2,2013-06-04 21:38:00,
2013-06-04 17:43:00,71.7,50.4,30.11,East,89,5.0,11.0,47,0.00,,,0.00,WUHU216DAVISVP2,2013-06-04 21:43:00,
2013-06-04 17:54:00,72.2,50.3,30.11,ENE,77,6.0,10.0,46,0.00,,,0.00,WUHU216DAVISVP2,2013-06-04 21:54:00,
2013-06-04 17:59:00,72.4,48.6,30.11,East,79,5.0,11.0,43,0.00,,,0.00,WUHU216DAVISVP2,2013-06-04 21:59:00,
2013-06-04 18:04:00,72.5,50.5,30.11,NE,51,7.0,11.0,46,0.00,,,0.00,WUHU216DAVISVP2,2013-06-04 22:04:00,
2013-06-04 18:16:00,72.6,47.5,30.11,East,81,7.0,10.0,41,0.00,,,0.00,WUHU216DAVISVP2,2013-06-04 22:16:00,
2013-06-04 18:21:00,72.4,49.3,30.11,NE,54,9.0,11.0,44,0.00,,,0.00,WUHU216DAVISVP2,2013-06-04 22:21:00,
2013-06-04 18:26:00,72.2,49.0,30.11,East,86,5.0,11.0,44,0.00,,,0.00,WUHU216DAVISVP2,2013-06-04 22:26:00,
2013-06-04 18:38:00,71.9,50.0,30.11,East,79,5.0,13.0,46,0.00,,,0.00,WUHU216DAVISVP2,2013-06-04 22:38:00,
2013-06-04 18:43:00,71.8,48.0,30.11,East,81,6.0,12.0,43,0.00,,,0.00,WUHU216DAVISVP2,2013-06-04 22:43:00,
2013-06-04 19:00:00,71.7,49.2,30.10,East,84,8.0,12.0,45,0.00,,,0.00,WUHU216DAVISVP2,2013-06-04 23:00:00,
2013-06-04 19:05:00,71.9,50.6,30.10,ENE,58,9.0,12.0,47,0.00,,,0.00,WUHU216DAVISVP2,2013-06-04 23:05:00,
2013-06-04 19:10:00,71.7,48.6,30.11,ENE,61,7.0,12.0,44,0.00,,,0.00,WUHU216DAVISVP2,2013-06-04 23:10:00,
2013-06-04 19:22:00,71.1,49.8,30.11,ENE,72,6.0,11.0,47,0.00,,,0.00,WUHU216DAVISVP2,2013-06-04 23:22:00,
2013-06-04 19:27:00,71.0,49.7,30.11,ENE,74,5.0,10.0,47,0.00,,,0.00,WUHU216DAVISVP2,2013-06-04 23:27:00,
2013-06-04 19:44:00,69.9,50.5,30.12,ENE,71,3.0,7.0,50,0.00,,,0.00,WUHU216DAVISVP2,2013-06-04 23:44:00,
2013-06-04 19:49:00,69.7,51.9,30.11,ENE,70,2.0,7.0,53,0.00,,,0.00,WUHU216DAVISVP2,2013-06-04 23:49:00,
2013-06-04 20:06:00,69.5,51.2,30.11,ENE,61,2.0,5.0,52,0.00,,,0.00,WUHU216DAVISVP2,2013-06-05 00:06:00,
2013-06-04 20:11:00,69.4,50.6,30.12,NE,56,1.0,4.0,51,0.00,,,0.00,WUHU216DAVISVP2,2013-06-05 00:11:00,
2013-06-04 20:28:00,68.9,51.6,30.11,ENE,61,3.0,3.0,54,0.00,,,0.00,WUHU216DAVISVP2,2013-06-05 00:28:00,
2013-06-04 20:33:00,68.8,52.6,30.11,ENE,71,3.0,4.0,56,0.00,,,0.00,WUHU216DAVISVP2,2013-06-05 00:33:00,
2013-06-04 20:50:00,67.5,52.8,30.11,ENE,65,1.0,3.0,59,0.00,,,0.00,WUHU216DAVISVP2,2013-06-05 00:50:00,
2013-06-04 20:55:00,67.5,51.9,30.11,NE,56,2.0,3.0,57,0.00,,,0.00,WUHU216DAVISVP2,2013-06-05 00:55:00,
2013-06-04 21:00:00,67.4,52.3,30.11,ENE,64,3.0,3.0,58,0.00,,,0.00,WUHU216DAVISVP2,2013-06-05 01:00:00,
2013-06-04 21:12:00,66.9,52.3,30.11,ENE,65,1.0,3.0,59,0.00,,,0.00,WUHU216DAVISVP2,2013-06-05 01:12:00,
2013-06-04 21:17:00,66.4,52.7,30.11,ENE,64,2.0,3.0,61,0.00,,,0.00,WUHU216DAVISVP2,2013-06-05 01:17:00,
2013-06-04 21:34:00,65.8,52.1,30.11,ENE,71,1.0,4.0,61,0.00,,,0.00,WUHU216DAVISVP2,2013-06-05 01:34:00,
2013-06-04 21:39:00,65.5,52.6,30.11,ENE,75,0.0,4.0,63,0.00,,,0.00,WUHU216DAVISVP2,2013-06-05 01:39:00,
2013-06-04 21:55:00,64.1,53.3,30.11,ENE,71,1.0,2.0,68,0.00,,,0.00,WUHU216DAVISVP2,2013-06-05 01:55:00,
2013-06-04 22:00:00,63.9,53.3,30.11,ENE,68,1.0,2.0,68,0.00,,,0.00,WUHU216DAVISVP2,2013-06-05 02:00:00,
2013-06-04 22:05:00,63.8,53.0,30.11,ENE,65,1.0,2.0,68,0.00,,,0.00,WUHU216DAVISVP2,2013-06-05 02:05:00,
2013-06-04 22:17:00,63.9,52.1,30.12,ENE,61,2.0,3.0,65,0.00,,,0.00,WUHU216DAVISVP2,2013-06-05 02:17:00,
2013-06-04 22:22:00,63.8,52.4,30.12,ENE,67,1.0,3.0,66,0.00,,,0.00,WUHU216DAVISVP2,2013-06-05 02:22:00,
2013-06-04 22:39:00,63.3,52.7,30.12,ENE,78,1.0,2.0,68,0.00,,,0.00,WUHU216DAVISVP2,2013-06-05 02:39:00,
2013-06-04 22:44:00,63.0,52.8,30.12,ENE,71,1.0,2.0,69,0.00,,,0.00,WUHU216DAVISVP2,2013-06-05 02:44:00,
2013-06-04 23:01:00,61.7,53.1,30.12,East,79,0.0,1.0,73,0.00,,,0.00,WUHU216DAVISVP2,2013-06-05 03:01:00,
2013-06-04 23:06:00,61.6,52.6,30.12,ENE,75,1.0,2.0,72,0.00,,,0.00,WUHU216DAVISVP2,2013-06-05 03:06:00,
2013-06-04 23:11:00,61.6,52.2,30.12,ENE,71,2.0,3.0,71,0.00,,,0.00,WUHU216DAVISVP2,2013-06-05 03:11:00,
2013-06-04 23:23:00,62.0,52.2,30.12,ENE,65,2.0,3.0,70,0.00,,,0.00,WUHU216DAVISVP2,2013-06-05 03:23:00,
2013-06-04 23:28:00,62.3,51.8,30.12,ENE,72,2.0,3.0,68,0.00,,,0.00,WUHU216DAVISVP2,2013-06-05 03:28:00,
2013-06-04 23:45:00,62.8,51.7,30.12,ENE,67,2.0,4.0,67,0.00,,,0.00,WUHU216DAVISVP2,2013-06-05 03:45:00,
2013-06-04 23:50:00,62.8,52.1,30.12,ENE,67,2.0,4.0,68,0.00,,,0.00,WUHU216DAVISVP2,2013-06-05 03:50:00,
2013-06-04 23:55:00,62.7,52.0,30.12,ENE,68,2.0,4.0,68,0.00,,,0.00,WUHU216DAVISVP2,2013-06-05 03:55:00,